Kuiper-00050

operational
NORAD ID: 64510 Int'l Des: 2025-134 Owner: KUIP Country: US Constellation: kuiper
LEOCIRCULARSTARLINK_TYPE

Über Kuiper-00050

Beschreibung wird geladen...

Live-Position

3D-Globus wird geladen...

Nächste Überflüge

Höhenverlauf

Altitude vs Time

uPlot chart will show altitude changes over time

Zweizeiliger Elementsatz

1 64510U 25134L 25340.23371440 .00013501 00000-0 11944-2 0 9990
2 64510 51.8916 276.5506 0004866 18.1577 341.9565 14.96540912 26374
Epoch: 6. Dez. 2025 • Age: 25 hours

Aktueller Status

Höhe 580.7 km
Geschwindigkeit 7.57 km/s
Subsatellitenpunkt 30.39°N, 105.71°W
Startdatum 23. Juni 2025
Alter 0.4 years
Typ internet

Technische Details

Klassifizierung Payload
Masse 490.00 kg
Trockenmasse 490.00 kg
Gesamtmasse 490.00 kg
Länge 1.80 m
Durchmesser 0.70 m
Spannweite 5.00 m
Form Box + 2 pan
Hersteller KUIP
Bus-Typ Kuiper
Phasenstatus In Orbit
Besitzer/Staat KUIP/US

Große Konstellationen

Loading constellations...